Tracking 20093 objects as of 15-Dec-2019
HD Live streaming from Space Station
objects crossing your sky now

ARIANE 5 R/B

Track ARIANE 5 R/B now!


NORAD ID: 40942
Int'l Code: 2015-054C
Perigee: 202.0 km
Apogee: 33,500.5 km
Inclination: 6.1 °
Period: 587.0 minutes
Semi major axis: 23222 km
RCS: Unknown
Launch date: September 30, 2015
Source: France (FR)
Launch site: FRENCH GUIANA (FRGUI)

Note: This is a ROCKET BODY
aabbcc
Your satellite tracking list
Your tracking list is empty




NASA's NSSDC Master Catalog

Two Line Element Set (TLE):
1 40942U 15054C   19348.67769807  .00020455 -33596-7  13339-2 0  9990
2 40942   6.1147 186.9616 7169532  72.4329 349.4346  2.45328270 36507
Source of the keplerian elements: AFSPC